Погода в Отаре

Погода в Отаре : погода сейчас, прогноз погоды и архив. Всё, что Вы хотите узнать о погоде в Отаре!

Поиск расширенной информации на нашем сайте:

Другие новости

Новости СМИ2

Главная страница сайта

Новости сайта

02.10.2013

Напоминаем, что на нашем новом сайте вы можете получить высокодетализированные прогнозы погоды по пунктам России, СНГ и мира (включающие важные для авиации метеовеличины, такие как направление и скорость ветра, видимость, явления погоды, количество и форма облачности, нижняя и верхняя граница облачности), а также ознакомиться с разнообразными материалами по авиационной метеорологии и подборкой полезных ссылок на эту тему.

Сайт Метеоцентр.Азия посвящён разработке технологий оптимизации авиаметеорологического обслуживания, включая проектирование и перспективное создание нескольких автоматизированных авиаметеорологических систем:
- система выпуска высокодетальных прогностических карт явлений погоды для нижнего воздушного пространства по России и ближнему зарубежью;
- система верификации прогнозов TAF (выпускаемых синоптиками официальных АМСГ РФ и ближнего зарубежья) и AUTOTAF (выпускаемых сайтом Метеоцентр.Азия) - выявление ошибок, онлайн-сопоставление с фактической погодой METAR, автоматическое внесение коррективов в прогнозы при резком отклонении фактической погоды от прогноза, подсчёт оправдываемости прогнозов по элементам и в целом;
- система обработки, анализа и отображения авиаметеорологической информации для применения провайдерами метеорологической информации.

Рекомендуем: Потолочные светодиодные светильники армстронг.

Погода в Отаре - сегодня

Время (UTC), дата Ветер
(°,м/с) 
Видим.   Явления Облачность Т
(°С)
Тd
(°С)
f(%) Тe
(°С)
Pmin
(гПа)
dP
(гПа)
Po
(мм)
O2
(г/м3)
Тmin Tmax R s Состояние
почвы
00 24.03.17 тихо ()   н/о    3/0 верхняя 
[Ci fib]
+0.3 -1.1 90 1026.8  -1  703  283           
03 24.03.17 тихо ()   20000 м    6/0 верхняя 
[Ci fib]
+3.2 +0 79 +3  1024.3  -1.4  702  279           
06 24.03.17 070 (В) 20000 м    10/0 верхняя 
[Cs]
+13.3 +2.6 48 +13  1018.4  -2.3  700  268  +0.1         
09 24.03.17 160 (Ю) 20000 м    10/0 верхняя 
[Cs]
+15.8 +1.5 38 +16  1016.1  -1.5  699  266           
12 24.03.17 090 (В) 20000 м    10/0 верхняя 
[Cs]
+15.5 +0.4 36 +15  1014.7  -1.4  698  266           
15 24.03.17 020 (С) н/о    8/0 верхняя 
[Ci sp]
+10.8 -0.5 45 +10  1016.7  0.5  698  270    +16.3       
18 24.03.17 340 (С) н/о    10/10 2000 м 
[Ac As]
+8 +1.7 64 +8  1018.5  0.9  699  273    +16.3       
21 24.03.17 270 (З) н/о    10/5 1000 м средняя 
[Sc|Ac As]
+8.1 +4.6 79 +6  1018.2  -0.2  699  273           
00 25.03.17 290 (З) н/о    10/10 1000 м 
[Sc]
+7.9 +5.1 82 +5  1019.2  0.9  699  273           
03 25.03.17 290 (З) 20000 м    6/3 1000 м средняя, верхняя 
[Sc diur, vesp|Ac trans|Ci sp]
+10.4 +5.3 71 +8  1020  1.5  700  271           
06 25.03.17 340 (С) 20000 м    5/0 верхняя 
[Ci fib]
+16 +6.1 52 +16  1017.5  -0.7  700  265  +7.7         
09 25.03.17 020 (С) 20000 м    6/4 1000 м верхняя 
[Cu med, cong|Ci fib]
+18.4 +7.6 49 +19  1014.7  -1.9  698  262           
12 25.03.17 020 (С) 20000 м    8/5 2000 м средняя, верхняя 
[Ac und|Cc]
+14.8 +4 48 +14  1015.8  -0.1  698  266           
15 25.03.17 070 (В) н/о    3/3 2000 м средняя 
[Ac trans]
+10.4 +3.2 61 +9  1017  -0.1  698  270    +18.8       
18 25.03.17 020 (С) н/о    ясно 
+6.1 +3.2 82 +5  1018.6  0.2  698  275    +18.8       
21 25.03.17 тихо ()   н/о    10/10 2000 м 
[Ac As]
+5.8 +3.2 83 +6  1019.5  0.7  699  275           
00 26.03.17 тихо () {10}  н/о    10/10 2000 м 
[Ac As]
+4.6 +2.6 87 +5  1018.9  -1  698  276           
03 26.03.17 тихо ()   20000 м    10/10 2000 м 
[Ac As]
+6.4 +3.3 81 +6  1018.4  0.2  698  274           
06 26.03.17 250 (З) 20000 м    10/10 2000 м 
[Ac As]
+12.6 +5.7 63 +12  1016.5  0.1  698  268  +4.4         
09 26.03.17 270 (З) 20000 м    10/6 1000 м средняя 
[Sc|Ac As]
+9.5 +5.1 74 +7  1019.3  1.6  700  272           
12 26.03.17 270 (З) 20000 м    10/10 1000 м 
[Sc]
+7.9 +5.1 82 +6  1021.1  1.2  701  273           
15 26.03.17 290 (З) н/о    10/10 1000 м 
[Sc]
+6.6 +4.3 85 +6  1022.5  0.9  701  275    +13.5       
18 26.03.17 270 (З) н/о    10/10 1000 м 
[Sc]
+5.2 +3 86 +4  1023.6  0.5  702  277    +13.5       
21 26.03.17 250 (З) н/о  слаб. дождь  10/10 600 м 
[Ns]
+4.5 +3 90 +4  1024.7  0.9  702  278           
00 27.03.17 200 (Ю) н/о  слаб. дождь  10/10 600 м 
[Ns]
+2.9 +2.9 100 +2  1026.2  0.9  703  280           
Время (UTC), дата Ветер
(°,м/с) 
Видим.   Явления Облачность Т
(°С)
Тd
(°С)
f(%) Тe
(°С)
Pmin
(гПа)
dP
(гПа)
Po
(мм)
O2
(г/м3)
Тmin Tmax R s Состояние
почвы

Для получения пояснительной информации подведите курсор к названию столбца.

ПОГОДА в Отаре - архив

Всё, что Вы хотите узнать о погоде в Отаре - удобно и подробно!

Выберите нужную дату (начиная с 1 января 2015* года) и нажмите кнопку "Найти".
Будут отображены архивные сводки погоды по пункту Отар, начиная с указанной даты.


Отображать данные в формате CSV (для использования в таблицах Excel)


Внимание! Наш архив погоды предназначен исключительно для личного некоммерческого использования в познавательных целях. Если Вам необходимы официальные справки о состоянии погоды (для производственных, юридических, коммерческих и т.п. целей), обращайтесь в органы Росгидромета.

*Примечание: данная дата относится к архиву по метеостанциям СССР (Россия, СНГ, Балтия).
Архив по метеостанциям Зарубежной Европы и Азии (кроме Китая) хранится 10 дней, по другим регионам земного шара (Китай, Африка, Америка, Австралия, Океания) - 1 день.

Отар - район местоположения метеостанции


Название, широта, долгота, высота метеостанции:
Отар 43.5°ш. 75.2°д. 743 м над ур. моря [Казахстан]

Дополнительная информация

В oтличие oт бoльшинства пoгoдных сайтoв мы публикуем пoдрoбную метеoинфoрмацию в детальнoм прoфессиoнальнoм фoрмате.

Характеристики температуры и влажнoсти вoздуха измеряются на высoте 2 м в тени вдали oт зданий и деревьев.
Скoрoсть ветра измеряется на высoте 10 м (на урoвне рoста челoвека скoрoсть ветра ниже в 1.5-2 раза). Если метеoстанция нахoдится в гoрoде или в лесу, тo скoрoсть ветра занижена на 2-4 м/с пo сравнению с oткрытым местoм. Скoрoсть ветра над акватoриями крупных рек и oзёр, а также на вершинах хoлмoв на 2-5 м/с выше, чем в oбычных услoвиях.
Атмoсфернoе давление в разных тoчках местнoсти мoжет значительнo oтличаться oт давления на метеoстанции, в зависимoсти oт услoвий рельефа (при пoдъёме на 10 м давление пoнижается примернo на 1 мм рт.ст.).